Starlink 3732

operational
NORAD ID: 52126 Int'l Des: 2022-029 Owner: SPXS Country: US Constellation: starlink
LEOCIRCULAR

关于 Starlink 3732

正在加载描述...

实时位置

正在加载3D地球...

即将过境

高度历史

Altitude vs Time

uPlot chart will show altitude changes over time

两行轨道根数

1 52126U 22029AQ 25306.25131277 .00000391 00000-0 42678-4 0 9999
2 52126 53.2192 281.2121 0001573 88.6625 271.4547 15.08840496201680
Epoch: Nov 2, 2025 • Age: 38 hours

当前状态

高度 539.8 km
速度 7.60 km/s
星下点 20.64°N, 57.53°W
发射日期 Mar 19, 2022
运行时间 3.6 years
类型 internet

技术详情

分类 Payload
质量 297.00 kg
干质量 275.00 kg
总质量 297.00 kg
长度 0.20 m
直径 2.80 m
跨度 9.00 m
形状 Box + pan
制造商 SPXS
平台类型 Starlink
阶段状态 In Orbit
所有者/国家 SPXS/US

大型星座

Loading constellations...